Year,Month,Day,Hour,Minute,Value (Times are PST for temperature in C)
2014,08,18,00,00,17.60
2014,08,18,00,01,17.60
2014,08,18,00,02,17.60
2014,08,18,00,03,17.60
2014,08,18,00,04,17.50
2014,08,18,00,05,17.50
2014,08,18,00,06,17.50
2014,08,18,00,07,17.50
2014,08,18,00,08,17.40
2014,08,18,00,09,17.40
2014,08,18,00,10,17.40
2014,08,18,00,11,17.40
2014,08,18,00,12,17.40
2014,08,18,00,13,17.40
2014,08,18,00,14,17.40
2014,08,18,00,15,17.40
2014,08,18,00,16,17.40
2014,08,18,00,17,17.40
2014,08,18,00,18,17.30
2014,08,18,00,19,17.30
2014,08,18,00,20,17.30
2014,08,18,00,21,17.30
2014,08,18,00,22,17.30
2014,08,18,00,23,17.30
2014,08,18,00,24,17.30
2014,08,18,00,25,17.30
2014,08,18,00,26,17.30
2014,08,18,00,27,17.30
2014,08,18,00,28,17.30
2014,08,18,00,29,17.30
2014,08,18,00,30,17.30
2014,08,18,00,31,17.30
2014,08,18,00,32,17.30
2014,08,18,00,33,17.30
2014,08,18,00,34,17.30
2014,08,18,00,35,17.30
2014,08,18,00,36,17.30
2014,08,18,00,37,17.20
2014,08,18,00,38,17.20
2014,08,18,00,39,17.20
2014,08,18,00,40,17.20
2014,08,18,00,41,17.20
2014,08,18,00,42,17.20
2014,08,18,00,43,17.20
2014,08,18,00,44,17.20
2014,08,18,00,45,17.20
2014,08,18,00,46,17.20
2014,08,18,00,47,17.20
2014,08,18,00,48,17.10
2014,08,18,00,49,17.10
2014,08,18,00,50,17.10
2014,08,18,00,51,17.10
2014,08,18,00,52,17.10
2014,08,18,00,53,17.10
2014,08,18,00,54,17.10
2014,08,18,00,55,17.00
2014,08,18,00,56,17.00
2014,08,18,00,57,17.00
2014,08,18,00,58,17.00
2014,08,18,00,59,17.00
2014,08,18,01,00,17.00
2014,08,18,01,01,16.90
2014,08,18,01,02,16.90
2014,08,18,01,03,16.90
2014,08,18,01,04,16.90
2014,08,18,01,05,16.90
2014,08,18,01,06,16.90
2014,08,18,01,07,16.90
2014,08,18,01,08,16.90
2014,08,18,01,09,16.90
2014,08,18,01,10,16.90
2014,08,18,01,11,16.90
2014,08,18,01,12,16.90
2014,08,18,01,13,16.80
2014,08,18,01,14,16.80
2014,08,18,01,15,16.80
2014,08,18,01,16,16.80
2014,08,18,01,17,16.80
2014,08,18,01,18,16.80
2014,08,18,01,19,16.80
2014,08,18,01,20,16.80
2014,08,18,01,21,16.80
2014,08,18,01,22,16.80
2014,08,18,01,23,16.80
2014,08,18,01,24,16.80
2014,08,18,01,25,16.80
2014,08,18,01,26,16.80
2014,08,18,01,27,16.80
2014,08,18,01,28,16.80
2014,08,18,01,29,16.70
2014,08,18,01,30,16.70
2014,08,18,01,31,16.70
2014,08,18,01,32,16.70
2014,08,18,01,33,16.70
2014,08,18,01,34,16.70
2014,08,18,01,35,16.70
2014,08,18,01,36,16.70
2014,08,18,01,37,16.60
2014,08,18,01,38,16.60
2014,08,18,01,39,16.60
2014,08,18,01,40,16.60
2014,08,18,01,41,16.60
2014,08,18,01,42,16.60
2014,08,18,01,43,16.60
2014,08,18,01,44,16.60
2014,08,18,01,45,16.60
2014,08,18,01,46,16.60
2014,08,18,01,47,16.60
2014,08,18,01,48,16.50
2014,08,18,01,49,16.50
2014,08,18,01,50,16.50
2014,08,18,01,51,16.50
2014,08,18,01,52,16.50
2014,08,18,01,53,16.50
2014,08,18,01,54,16.50
2014,08,18,01,55,16.50
2014,08,18,01,56,16.60
2014,08,18,01,57,16.60
2014,08,18,01,58,16.60
2014,08,18,01,59,16.50
2014,08,18,02,00,16.60
2014,08,18,02,01,16.50
2014,08,18,02,02,16.50
2014,08,18,02,03,16.50
2014,08,18,02,04,16.50
2014,08,18,02,05,16.50
2014,08,18,02,06,16.50
2014,08,18,02,07,16.50
2014,08,18,02,08,16.50
2014,08,18,02,09,16.50
2014,08,18,02,10,16.50
2014,08,18,02,11,16.40
2014,08,18,02,12,16.40
2014,08,18,02,13,16.50
2014,08,18,02,14,16.40
2014,08,18,02,15,16.40
2014,08,18,02,16,16.40
2014,08,18,02,17,16.40
2014,08,18,02,18,16.40
2014,08,18,02,19,16.40
2014,08,18,02,20,16.40
2014,08,18,02,21,16.40
2014,08,18,02,22,16.40
2014,08,18,02,23,16.40
2014,08,18,02,24,16.40
2014,08,18,02,25,16.40
2014,08,18,02,26,16.40
2014,08,18,02,27,16.40
2014,08,18,02,28,16.30
2014,08,18,02,29,16.40
2014,08,18,02,30,16.40
2014,08,18,02,31,16.40
2014,08,18,02,32,16.40
2014,08,18,02,33,16.40
2014,08,18,02,34,16.30
2014,08,18,02,35,16.30
2014,08,18,02,36,16.30
2014,08,18,02,37,16.40
2014,08,18,02,38,16.40
2014,08,18,02,39,16.40
2014,08,18,02,40,16.40
2014,08,18,02,41,16.40
2014,08,18,02,42,16.40
2014,08,18,02,43,16.40
2014,08,18,02,44,16.40
2014,08,18,02,45,16.40
2014,08,18,02,46,16.40
2014,08,18,02,47,16.40
2014,08,18,02,48,16.30
2014,08,18,02,49,16.30
2014,08,18,02,50,16.30
2014,08,18,02,51,16.30
2014,08,18,02,52,16.30
2014,08,18,02,53,16.30
2014,08,18,02,54,16.30
2014,08,18,02,55,16.40
2014,08,18,02,56,16.40
2014,08,18,02,57,16.40
2014,08,18,02,58,16.40
2014,08,18,02,59,16.40
2014,08,18,03,00,16.40
2014,08,18,03,01,16.40
2014,08,18,03,02,16.40
2014,08,18,03,03,16.40
2014,08,18,03,04,16.40
2014,08,18,03,05,16.40
2014,08,18,03,06,16.40
2014,08,18,03,07,16.40
2014,08,18,03,08,16.40
2014,08,18,03,09,16.40
2014,08,18,03,10,16.40
2014,08,18,03,11,16.40
2014,08,18,03,12,16.30
2014,08,18,03,13,16.30
2014,08,18,03,14,16.30
2014,08,18,03,15,16.30
2014,08,18,03,16,16.30
2014,08,18,03,17,16.30
2014,08,18,03,18,16.30
2014,08,18,03,19,16.30
2014,08,18,03,20,16.30
2014,08,18,03,21,16.30
2014,08,18,03,22,16.30
2014,08,18,03,23,16.30
2014,08,18,03,24,16.30
2014,08,18,03,25,16.30
2014,08,18,03,26,16.30
2014,08,18,03,27,16.30
2014,08,18,03,28,16.30
2014,08,18,03,29,16.20
2014,08,18,03,30,16.20
2014,08,18,03,31,16.20
2014,08,18,03,32,16.20
2014,08,18,03,33,16.20
2014,08,18,03,34,16.20
2014,08,18,03,35,16.30
2014,08,18,03,36,16.30
2014,08,18,03,37,16.30
2014,08,18,03,38,16.30
2014,08,18,03,39,16.30
2014,08,18,03,40,16.30
2014,08,18,03,41,16.30
2014,08,18,03,42,16.30
2014,08,18,03,43,16.30
2014,08,18,03,44,16.30
2014,08,18,03,45,16.30
2014,08,18,03,46,16.30
2014,08,18,03,47,16.30
2014,08,18,03,48,16.30
2014,08,18,03,49,16.30
2014,08,18,03,50,16.30
2014,08,18,03,51,16.30
2014,08,18,03,52,16.30
2014,08,18,03,53,16.30
2014,08,18,03,54,16.40
2014,08,18,03,55,16.40
2014,08,18,03,56,16.40
2014,08,18,03,57,16.40
2014,08,18,03,58,16.40
2014,08,18,03,59,16.40
2014,08,18,04,00,16.40
2014,08,18,04,01,16.40
2014,08,18,04,02,16.40
2014,08,18,04,03,16.40
2014,08,18,04,04,16.40
2014,08,18,04,05,16.40
2014,08,18,04,06,16.40
2014,08,18,04,07,16.40
2014,08,18,04,08,16.40
2014,08,18,04,09,16.40
2014,08,18,04,10,16.40
2014,08,18,04,11,16.40
2014,08,18,04,12,16.40
2014,08,18,04,13,16.40
2014,08,18,04,14,16.40
2014,08,18,04,15,16.40
2014,08,18,04,16,16.40
2014,08,18,04,17,16.40
2014,08,18,04,18,16.40
2014,08,18,04,19,16.40
2014,08,18,04,20,16.40
2014,08,18,04,21,16.40
2014,08,18,04,22,16.40
2014,08,18,04,23,16.40
2014,08,18,04,24,16.40
2014,08,18,04,25,16.40
2014,08,18,04,26,16.40
2014,08,18,04,27,16.40
2014,08,18,04,28,16.40
2014,08,18,04,29,16.40
2014,08,18,04,30,16.40
2014,08,18,04,31,16.40
2014,08,18,04,32,16.40
2014,08,18,04,33,16.40
2014,08,18,04,34,16.30
2014,08,18,04,35,16.30
2014,08,18,04,36,16.30
2014,08,18,04,37,16.30
2014,08,18,04,38,16.30
2014,08,18,04,39,16.30
2014,08,18,04,40,16.30
2014,08,18,04,41,16.30
2014,08,18,04,42,16.30
2014,08,18,04,43,16.30
2014,08,18,04,44,16.20
2014,08,18,04,45,16.20
2014,08,18,04,46,16.20
2014,08,18,04,47,16.20
2014,08,18,04,48,16.20
2014,08,18,04,49,16.20
2014,08,18,04,50,16.20
2014,08,18,04,51,16.20
2014,08,18,04,52,16.20
2014,08,18,04,53,16.20
2014,08,18,04,54,16.10
2014,08,18,04,55,16.10
2014,08,18,04,56,16.10
2014,08,18,04,57,16.10
2014,08,18,04,58,16.10
2014,08,18,04,59,16.00
2014,08,18,05,00,16.00
2014,08,18,05,01,16.00
2014,08,18,05,02,16.00
2014,08,18,05,03,15.90
2014,08,18,05,04,15.90
2014,08,18,05,05,15.90
2014,08,18,05,06,15.90
2014,08,18,05,07,15.90
2014,08,18,05,08,15.90
2014,08,18,05,09,15.90
2014,08,18,05,10,15.90
2014,08,18,05,11,15.90
2014,08,18,05,12,15.90
2014,08,18,05,13,15.90
2014,08,18,05,14,15.80
2014,08,18,05,15,15.80
2014,08,18,05,16,15.80
2014,08,18,05,17,15.80
2014,08,18,05,18,15.80
2014,08,18,05,19,15.80
2014,08,18,05,20,15.70
2014,08,18,05,21,15.70
2014,08,18,05,22,15.70
2014,08,18,05,23,15.70
2014,08,18,05,24,15.60
2014,08,18,05,25,15.60
2014,08,18,05,26,15.60
2014,08,18,05,27,15.60
2014,08,18,05,28,15.60
2014,08,18,05,29,15.70
2014,08,18,05,30,15.70
2014,08,18,05,31,15.70
2014,08,18,05,32,15.70
2014,08,18,05,33,15.70
2014,08,18,05,34,15.70
2014,08,18,05,35,15.70
2014,08,18,05,36,15.60
2014,08,18,05,37,15.60
2014,08,18,05,38,15.60
2014,08,18,05,39,15.50
2014,08,18,05,40,15.50
2014,08,18,05,41,15.50
2014,08,18,05,42,15.40
2014,08,18,05,43,15.40
2014,08,18,05,44,15.40
2014,08,18,05,45,15.40
2014,08,18,05,46,15.40
2014,08,18,05,47,15.40
2014,08,18,05,48,15.40
2014,08,18,05,49,15.40
2014,08,18,05,50,15.40
2014,08,18,05,51,15.40
2014,08,18,05,52,15.40
2014,08,18,05,53,15.40
2014,08,18,05,54,15.40
2014,08,18,05,55,15.40
2014,08,18,05,56,15.40
2014,08,18,05,57,15.40
2014,08,18,05,58,15.30
2014,08,18,05,59,15.30
2014,08,18,06,00,15.30
2014,08,18,06,01,15.30
2014,08,18,06,02,15.30
2014,08,18,06,03,15.30
2014,08,18,06,04,15.30
2014,08,18,06,05,15.40
2014,08,18,06,06,15.40
2014,08,18,06,07,15.40
2014,08,18,06,08,15.50
2014,08,18,06,09,15.50
2014,08,18,06,10,15.50
2014,08,18,06,11,15.50
2014,08,18,06,12,15.50
2014,08,18,06,13,15.50
2014,08,18,06,14,15.60
2014,08,18,06,15,15.60
2014,08,18,06,16,15.60
2014,08,18,06,17,15.60
2014,08,18,06,18,15.60
2014,08,18,06,19,15.60
2014,08,18,06,20,15.60
2014,08,18,06,21,15.60
2014,08,18,06,22,15.60
2014,08,18,06,23,15.60
2014,08,18,06,24,15.60
2014,08,18,06,25,15.70
2014,08,18,06,26,15.70
2014,08,18,06,27,15.70
2014,08,18,06,28,15.70
2014,08,18,06,29,15.80
2014,08,18,06,30,15.80
2014,08,18,06,31,15.80
2014,08,18,06,32,15.80
2014,08,18,06,33,15.90
2014,08,18,06,34,15.90
2014,08,18,06,35,15.90
2014,08,18,06,36,16.00
2014,08,18,06,37,16.00
2014,08,18,06,38,16.00
2014,08,18,06,39,16.10
2014,08,18,06,40,16.10
2014,08,18,06,41,16.10
2014,08,18,06,42,16.10
2014,08,18,06,43,16.10
2014,08,18,06,44,16.10
2014,08,18,06,45,16.10
2014,08,18,06,46,16.10
2014,08,18,06,47,16.10
2014,08,18,06,48,16.10
2014,08,18,06,49,16.10
2014,08,18,06,50,16.10
2014,08,18,06,51,16.10
2014,08,18,06,52,16.10
2014,08,18,06,53,16.10
2014,08,18,06,54,16.10
2014,08,18,06,55,16.10
2014,08,18,06,56,16.10
2014,08,18,06,57,16.10
2014,08,18,06,58,16.10
2014,08,18,06,59,16.10
2014,08,18,07,00,16.10
2014,08,18,07,01,16.10
2014,08,18,07,02,16.20
2014,08,18,07,03,16.20
2014,08,18,07,04,16.20
2014,08,18,07,05,16.20
2014,08,18,07,06,16.20
2014,08,18,07,07,16.20
2014,08,18,07,08,16.20
2014,08,18,07,09,16.20
2014,08,18,07,10,16.30
2014,08,18,07,11,16.30
2014,08,18,07,12,16.30
2014,08,18,07,13,16.30
2014,08,18,07,14,16.30
2014,08,18,07,15,16.30
2014,08,18,07,16,16.30
2014,08,18,07,17,16.40
2014,08,18,07,18,16.40
2014,08,18,07,19,16.40
2014,08,18,07,20,16.40
2014,08,18,07,21,16.40
2014,08,18,07,22,16.50
2014,08,18,07,23,16.50
2014,08,18,07,24,16.60
2014,08,18,07,25,16.60
2014,08,18,07,26,16.60
2014,08,18,07,27,16.60
2014,08,18,07,28,16.70
2014,08,18,07,29,16.70
2014,08,18,07,30,16.70
2014,08,18,07,31,16.70
2014,08,18,07,32,16.80
2014,08,18,07,33,16.80
2014,08,18,07,34,16.80
2014,08,18,07,35,16.90
2014,08,18,07,36,16.90
2014,08,18,07,37,16.90
2014,08,18,07,38,17.00
2014,08,18,07,39,17.00
2014,08,18,07,40,17.00
2014,08,18,07,41,17.00
2014,08,18,07,42,17.00
2014,08,18,07,43,17.00
2014,08,18,07,44,17.10
2014,08,18,07,45,17.10
2014,08,18,07,46,17.10
2014,08,18,07,47,17.10
2014,08,18,07,48,17.10
2014,08,18,07,49,17.20
2014,08,18,07,50,17.20
2014,08,18,07,51,17.20
2014,08,18,07,52,17.20
2014,08,18,07,53,17.30
2014,08,18,07,54,17.30
2014,08,18,07,55,17.30
2014,08,18,07,56,17.40
2014,08,18,07,57,17.40
2014,08,18,07,58,17.40
2014,08,18,07,59,17.40
2014,08,18,08,00,17.50
2014,08,18,08,01,17.50
2014,08,18,08,02,17.60
2014,08,18,08,03,17.60
2014,08,18,08,04,17.70
2014,08,18,08,05,17.70
2014,08,18,08,06,17.70
2014,08,18,08,07,17.80
2014,08,18,08,08,17.80
2014,08,18,08,09,17.80
2014,08,18,08,10,17.90
2014,08,18,08,11,17.90
2014,08,18,08,12,18.00
2014,08,18,08,13,18.00
2014,08,18,08,14,18.10
2014,08,18,08,15,18.10
2014,08,18,08,16,18.20
2014,08,18,08,17,18.30
2014,08,18,08,18,18.30
2014,08,18,08,19,18.30
2014,08,18,08,20,18.30
2014,08,18,08,21,18.40
2014,08,18,08,22,18.40
2014,08,18,08,23,18.50
2014,08,18,08,24,18.50
2014,08,18,08,25,18.60
2014,08,18,08,26,18.60
2014,08,18,08,27,18.70
2014,08,18,08,28,18.70
2014,08,18,08,29,18.80
2014,08,18,08,30,18.80
2014,08,18,08,31,18.80
2014,08,18,08,32,18.90
2014,08,18,08,33,18.90
2014,08,18,08,34,19.00
2014,08,18,08,35,19.10
2014,08,18,08,36,19.10
2014,08,18,08,37,19.20
2014,08,18,08,38,19.30
2014,08,18,08,39,19.30
2014,08,18,08,40,19.40
2014,08,18,08,41,19.40
2014,08,18,08,42,19.50
2014,08,18,08,43,19.70
2014,08,18,08,44,19.90
2014,08,18,08,45,20.00
2014,08,18,08,46,20.10
2014,08,18,08,47,20.20
2014,08,18,08,48,20.30
2014,08,18,08,49,20.30
2014,08,18,08,50,20.40
2014,08,18,08,51,20.40
2014,08,18,08,52,20.40
2014,08,18,08,53,20.50
2014,08,18,08,54,20.50
2014,08,18,08,55,20.50
2014,08,18,08,56,20.50
2014,08,18,08,57,20.50
2014,08,18,08,58,20.60
2014,08,18,08,59,20.60
2014,08,18,09,00,20.60
2014,08,18,09,01,20.70
2014,08,18,09,02,20.70
2014,08,18,09,03,20.80
2014,08,18,09,04,20.80
2014,08,18,09,05,20.80
2014,08,18,09,06,20.80
2014,08,18,09,07,20.90
2014,08,18,09,08,20.90
2014,08,18,09,09,21.00
2014,08,18,09,10,21.00
2014,08,18,09,11,21.00
2014,08,18,09,12,21.10
2014,08,18,09,13,21.00
2014,08,18,09,14,21.00
2014,08,18,09,15,21.00
2014,08,18,09,16,21.00
2014,08,18,09,17,21.00
2014,08,18,09,18,21.00
2014,08,18,09,19,21.00
2014,08,18,09,20,21.00
2014,08,18,09,21,21.00
2014,08,18,09,22,21.00
2014,08,18,09,23,21.00
2014,08,18,09,24,21.00
2014,08,18,09,25,21.00
2014,08,18,09,26,21.00
2014,08,18,09,27,20.90
2014,08,18,09,28,20.90
2014,08,18,09,29,20.90
2014,08,18,09,30,20.90
2014,08,18,09,31,20.90
2014,08,18,09,32,20.90
2014,08,18,09,33,20.90
2014,08,18,09,34,20.80
2014,08,18,09,35,20.90
2014,08,18,09,36,20.90
2014,08,18,09,37,21.00
2014,08,18,09,38,21.10
2014,08,18,09,39,21.30
2014,08,18,09,40,21.40
2014,08,18,09,41,21.50
2014,08,18,09,42,21.60
2014,08,18,09,43,21.60
2014,08,18,09,44,21.70
2014,08,18,09,45,21.70
2014,08,18,09,46,21.80
2014,08,18,09,47,21.90
2014,08,18,09,48,21.90
2014,08,18,09,49,22.00
2014,08,18,09,50,22.10
2014,08,18,09,51,22.20
2014,08,18,09,52,22.20
2014,08,18,09,53,22.30
2014,08,18,09,54,22.50
2014,08,18,09,55,22.60
2014,08,18,09,56,22.70
2014,08,18,09,57,22.80
2014,08,18,09,58,22.80
2014,08,18,09,59,22.80
2014,08,18,10,00,22.70
2014,08,18,10,01,22.70
2014,08,18,10,02,22.70
2014,08,18,10,03,22.70
2014,08,18,10,04,22.60
2014,08,18,10,05,22.60
2014,08,18,10,06,22.70
2014,08,18,10,07,22.80
2014,08,18,10,08,22.90
2014,08,18,10,09,22.90
2014,08,18,10,10,22.90
2014,08,18,10,11,23.00
2014,08,18,10,12,23.10
2014,08,18,10,13,23.10
2014,08,18,10,14,23.20
2014,08,18,10,15,23.30
2014,08,18,10,16,23.30
2014,08,18,10,17,23.30
2014,08,18,10,18,23.20
2014,08,18,10,19,23.20
2014,08,18,10,20,23.20
2014,08,18,10,21,23.30
2014,08,18,10,22,23.30
2014,08,18,10,23,23.30
2014,08,18,10,24,23.40
2014,08,18,10,25,23.50
2014,08,18,10,26,23.50
2014,08,18,10,27,23.40
2014,08,18,10,28,23.30
2014,08,18,10,29,23.30
2014,08,18,10,30,23.30
2014,08,18,10,31,23.30
2014,08,18,10,32,23.20
2014,08,18,10,33,23.20
2014,08,18,10,34,23.20
2014,08,18,10,35,23.30
2014,08,18,10,36,23.30
2014,08,18,10,37,23.30
2014,08,18,10,38,23.30
2014,08,18,10,39,23.40
2014,08,18,10,40,23.40
2014,08,18,10,41,23.50
2014,08,18,10,42,23.60
2014,08,18,10,43,23.60
2014,08,18,10,44,23.60
2014,08,18,10,45,23.60
2014,08,18,10,46,23.70
2014,08,18,10,47,23.80
2014,08,18,10,48,23.90
2014,08,18,10,49,24.00
2014,08,18,10,50,24.10
2014,08,18,10,51,24.20
2014,08,18,10,52,24.20
2014,08,18,10,53,24.10
2014,08,18,10,54,24.10
2014,08,18,10,55,24.00
2014,08,18,10,56,24.00
2014,08,18,10,57,23.90
2014,08,18,10,58,23.80
2014,08,18,10,59,23.90
2014,08,18,11,00,24.00
2014,08,18,11,01,24.00
2014,08,18,11,02,24.10
2014,08,18,11,03,24.10
2014,08,18,11,04,23.90
2014,08,18,11,05,23.80
2014,08,18,11,06,23.70
2014,08,18,11,07,23.70
2014,08,18,11,08,23.80
2014,08,18,11,09,24.00
2014,08,18,11,10,24.10
2014,08,18,11,11,24.20
2014,08,18,11,12,24.30
2014,08,18,11,13,24.40
2014,08,18,11,14,24.50
2014,08,18,11,15,24.60
2014,08,18,11,16,24.60
2014,08,18,11,17,24.60
2014,08,18,11,18,24.60
2014,08,18,11,19,24.60
2014,08,18,11,20,24.50
2014,08,18,11,21,24.30
2014,08,18,11,22,24.20
2014,08,18,11,23,24.20
2014,08,18,11,24,24.10
2014,08,18,11,25,24.10
2014,08,18,11,26,24.10
2014,08,18,11,27,24.10
2014,08,18,11,28,24.20
2014,08,18,11,29,24.30
2014,08,18,11,30,24.40
2014,08,18,11,31,24.40
2014,08,18,11,32,24.60
2014,08,18,11,33,24.70
2014,08,18,11,34,24.70
2014,08,18,11,35,24.70
2014,08,18,11,36,24.80
2014,08,18,11,37,24.80
2014,08,18,11,38,24.60
2014,08,18,11,39,24.50
2014,08,18,11,40,24.40
2014,08,18,11,41,24.40
2014,08,18,11,42,24.40
2014,08,18,11,43,24.50
2014,08,18,11,44,24.70
2014,08,18,11,45,24.70
2014,08,18,11,46,24.70
2014,08,18,11,47,24.80
2014,08,18,11,48,24.80
2014,08,18,11,49,24.80
2014,08,18,11,50,24.70
2014,08,18,11,51,24.70
2014,08,18,11,52,24.60
2014,08,18,11,53,24.50
2014,08,18,11,54,24.50
2014,08,18,11,55,24.60
2014,08,18,11,56,24.60
2014,08,18,11,57,24.70
2014,08,18,11,58,24.80
2014,08,18,11,59,24.90
2014,08,18,12,00,25.00
2014,08,18,12,01,25.10
2014,08,18,12,02,25.10
2014,08,18,12,03,25.10
2014,08,18,12,04,25.00
2014,08,18,12,05,25.00
2014,08,18,12,06,25.00
2014,08,18,12,07,25.00
2014,08,18,12,08,25.00
2014,08,18,12,09,25.10
2014,08,18,12,10,25.20
2014,08,18,12,11,25.30
2014,08,18,12,12,25.30
2014,08,18,12,13,25.20
2014,08,18,12,14,25.10
2014,08,18,12,15,25.10
2014,08,18,12,16,25.10
2014,08,18,12,17,25.20
2014,08,18,12,18,25.20
2014,08,18,12,19,25.20
2014,08,18,12,20,25.10
2014,08,18,12,21,25.10
2014,08,18,12,22,25.20
2014,08,18,12,23,25.10
2014,08,18,12,24,25.10
2014,08,18,12,25,24.90
2014,08,18,12,26,24.80
2014,08,18,12,27,24.80
2014,08,18,12,28,24.90
2014,08,18,12,29,24.90
2014,08,18,12,30,24.80
2014,08,18,12,31,24.80
2014,08,18,12,32,24.70
2014,08,18,12,33,24.60
2014,08,18,12,34,24.40
2014,08,18,12,35,24.50
2014,08,18,12,36,24.40
2014,08,18,12,37,24.40
2014,08,18,12,38,24.40
2014,08,18,12,39,24.20
2014,08,18,12,40,24.10
2014,08,18,12,41,24.10
2014,08,18,12,42,24.10
2014,08,18,12,43,24.00
2014,08,18,12,44,23.90
2014,08,18,12,45,23.80
2014,08,18,12,46,23.80
2014,08,18,12,47,23.90
2014,08,18,12,48,23.80
2014,08,18,12,49,24.00
2014,08,18,12,50,24.10
2014,08,18,12,51,24.20
2014,08,18,12,52,24.20
2014,08,18,12,53,24.30
2014,08,18,12,54,24.30
2014,08,18,12,55,24.30
2014,08,18,12,56,24.20
2014,08,18,12,57,24.30
2014,08,18,12,58,24.40
2014,08,18,12,59,24.70
2014,08,18,13,00,24.80
2014,08,18,13,01,24.90
2014,08,18,13,02,24.80
2014,08,18,13,03,24.90
2014,08,18,13,04,25.10
2014,08,18,13,05,25.20
2014,08,18,13,06,25.20
2014,08,18,13,07,25.10
2014,08,18,13,08,25.20
2014,08,18,13,09,25.30
2014,08,18,13,10,25.40
2014,08,18,13,11,25.40
2014,08,18,13,12,25.40
2014,08,18,13,13,25.40
2014,08,18,13,14,25.30
2014,08,18,13,15,25.30
2014,08,18,13,16,25.30
2014,08,18,13,17,25.40
2014,08,18,13,18,25.40
2014,08,18,13,19,25.40
2014,08,18,13,20,25.40
2014,08,18,13,21,25.20
2014,08,18,13,22,25.20
2014,08,18,13,23,25.10
2014,08,18,13,24,25.10
2014,08,18,13,25,25.00
2014,08,18,13,26,24.90
2014,08,18,13,27,24.80
2014,08,18,13,28,24.60
2014,08,18,13,29,24.40
2014,08,18,13,30,24.40
2014,08,18,13,31,24.50
2014,08,18,13,32,24.50
2014,08,18,13,33,24.70
2014,08,18,13,34,24.80
2014,08,18,13,35,24.70
2014,08,18,13,36,24.60
2014,08,18,13,37,24.40
2014,08,18,13,38,24.30
2014,08,18,13,39,24.20
2014,08,18,13,40,24.10
2014,08,18,13,41,24.10
2014,08,18,13,42,24.00
2014,08,18,13,43,23.90
2014,08,18,13,44,23.80
2014,08,18,13,45,23.80
2014,08,18,13,46,23.80
2014,08,18,13,47,23.90
2014,08,18,13,48,23.90
2014,08,18,13,49,23.90
2014,08,18,13,50,23.90
2014,08,18,13,51,23.90
2014,08,18,13,52,24.00
2014,08,18,13,53,24.10
2014,08,18,13,54,24.10
2014,08,18,13,55,24.00
2014,08,18,13,56,23.90
2014,08,18,13,57,23.80
2014,08,18,13,58,23.90
2014,08,18,13,59,24.00
2014,08,18,14,00,24.10
2014,08,18,14,01,24.10
2014,08,18,14,02,24.10
2014,08,18,14,03,24.10
2014,08,18,14,04,24.00
2014,08,18,14,05,23.90
2014,08,18,14,06,23.80
2014,08,18,14,07,23.80
2014,08,18,14,08,23.80
2014,08,18,14,09,23.80
2014,08,18,14,10,23.80
2014,08,18,14,11,23.90
2014,08,18,14,12,23.90
2014,08,18,14,13,23.80
2014,08,18,14,14,23.80
2014,08,18,14,15,23.80
2014,08,18,14,16,23.80
2014,08,18,14,17,23.80
2014,08,18,14,18,23.80
2014,08,18,14,19,23.80
2014,08,18,14,20,23.80
2014,08,18,14,21,23.80
2014,08,18,14,22,23.80
2014,08,18,14,23,23.80
2014,08,18,14,24,23.70
2014,08,18,14,25,23.60
2014,08,18,14,26,23.50
2014,08,18,14,27,23.40
2014,08,18,14,28,23.40
2014,08,18,14,29,23.40
2014,08,18,14,30,23.50
2014,08,18,14,31,23.50
2014,08,18,14,32,23.60
2014,08,18,14,33,23.60
2014,08,18,14,34,23.80
2014,08,18,14,35,23.90
2014,08,18,14,36,24.00
2014,08,18,14,37,24.00
2014,08,18,14,38,24.10
2014,08,18,14,39,24.30
2014,08,18,14,40,24.30
2014,08,18,14,41,24.30
2014,08,18,14,42,24.30
2014,08,18,14,43,24.30
2014,08,18,14,44,24.30
2014,08,18,14,45,24.30
2014,08,18,14,46,24.30
2014,08,18,14,47,24.30
2014,08,18,14,48,24.30
2014,08,18,14,49,24.20
2014,08,18,14,50,24.20
2014,08,18,14,51,24.20
2014,08,18,14,52,24.30
2014,08,18,14,53,24.30
2014,08,18,14,54,24.20
2014,08,18,14,55,24.10
2014,08,18,14,56,24.00
2014,08,18,14,57,23.80
2014,08,18,14,58,23.70
2014,08,18,14,59,23.60
2014,08,18,15,00,23.60
2014,08,18,15,01,23.60
2014,08,18,15,02,23.50
2014,08,18,15,03,23.50
2014,08,18,15,04,23.50
2014,08,18,15,05,23.60
2014,08,18,15,06,23.60
2014,08,18,15,07,23.70
2014,08,18,15,08,23.80
2014,08,18,15,09,23.80
2014,08,18,15,10,23.80
2014,08,18,15,11,23.80
2014,08,18,15,12,23.80
2014,08,18,15,13,23.80
2014,08,18,15,14,23.80
2014,08,18,15,15,23.90
2014,08,18,15,16,24.00
2014,08,18,15,17,24.10
2014,08,18,15,18,24.00
2014,08,18,15,19,23.90
2014,08,18,15,20,23.80
2014,08,18,15,21,23.70
2014,08,18,15,22,23.60
2014,08,18,15,23,23.70
2014,08,18,15,24,23.80
2014,08,18,15,25,23.90
2014,08,18,15,26,23.90
2014,08,18,15,27,24.00
2014,08,18,15,28,24.10
2014,08,18,15,29,24.10
2014,08,18,15,30,24.20
2014,08,18,15,31,24.20
2014,08,18,15,32,24.20
2014,08,18,15,33,24.20
2014,08,18,15,34,24.10
2014,08,18,15,35,24.10
2014,08,18,15,36,24.10
2014,08,18,15,37,24.00
2014,08,18,15,38,24.00
2014,08,18,15,39,24.00
2014,08,18,15,40,24.00
2014,08,18,15,41,24.00
2014,08,18,15,42,24.00
2014,08,18,15,43,24.00
2014,08,18,15,44,24.00
2014,08,18,15,45,24.00
2014,08,18,15,46,24.00
2014,08,18,15,47,24.10
2014,08,18,15,48,24.10
2014,08,18,15,49,24.10
2014,08,18,15,50,24.10
2014,08,18,15,51,24.10
2014,08,18,15,52,24.10
2014,08,18,15,53,24.20
2014,08,18,15,54,24.20
2014,08,18,15,55,24.30
2014,08,18,15,56,24.30
2014,08,18,15,57,24.30
2014,08,18,15,58,24.30
2014,08,18,15,59,24.20
2014,08,18,16,00,24.10
2014,08,18,16,01,24.00
2014,08,18,16,02,24.00
2014,08,18,16,03,24.00
2014,08,18,16,04,24.00
2014,08,18,16,05,24.00
2014,08,18,16,06,24.00
2014,08,18,16,07,24.10
2014,08,18,16,08,24.10
2014,08,18,16,09,24.20
2014,08,18,16,10,24.20
2014,08,18,16,11,24.20
2014,08,18,16,12,24.20
2014,08,18,16,13,24.20
2014,08,18,16,14,24.20
2014,08,18,16,15,24.20
2014,08,18,16,16,24.20
2014,08,18,16,17,24.20
2014,08,18,16,18,24.10
2014,08,18,16,19,24.10
2014,08,18,16,20,24.10
2014,08,18,16,21,24.10
2014,08,18,16,22,24.10
2014,08,18,16,23,24.00
2014,08,18,16,24,23.90
2014,08,18,16,25,23.90
2014,08,18,16,26,23.80
2014,08,18,16,27,23.80
2014,08,18,16,28,23.80
2014,08,18,16,29,23.90
2014,08,18,16,30,23.90
2014,08,18,16,31,23.90
2014,08,18,16,32,24.00
2014,08,18,16,33,24.00
2014,08,18,16,34,24.00
2014,08,18,16,35,23.90
2014,08,18,16,36,23.90
2014,08,18,16,37,23.90
2014,08,18,16,38,23.90
2014,08,18,16,39,23.90
2014,08,18,16,40,23.90
2014,08,18,16,41,23.90
2014,08,18,16,42,23.90
2014,08,18,16,43,23.90
2014,08,18,16,44,23.90
2014,08,18,16,45,23.90
2014,08,18,16,46,23.90
2014,08,18,16,47,23.90
2014,08,18,16,48,23.90
2014,08,18,16,49,23.90
2014,08,18,16,50,23.90
2014,08,18,16,51,23.90
2014,08,18,16,52,23.90
2014,08,18,16,53,23.90
2014,08,18,16,54,23.80
2014,08,18,16,55,23.80
2014,08,18,16,56,23.80
2014,08,18,16,57,23.80
2014,08,18,16,58,23.80
2014,08,18,16,59,23.80
2014,08,18,17,00,23.80
2014,08,18,17,01,23.90
2014,08,18,17,02,23.90
2014,08,18,17,03,23.90
2014,08,18,17,04,23.90
2014,08,18,17,05,23.90
2014,08,18,17,06,23.90
2014,08,18,17,07,24.00
2014,08,18,17,08,24.00
2014,08,18,17,09,24.00
2014,08,18,17,10,24.00
2014,08,18,17,11,24.00
2014,08,18,17,12,24.00
2014,08,18,17,13,24.10
2014,08,18,17,14,24.10
2014,08,18,17,15,24.20
2014,08,18,17,16,24.20
2014,08,18,17,17,24.20
2014,08,18,17,18,24.20
2014,08,18,17,19,24.20